Flag for USA

Past Weather in Vallejo, California, USA — Yesterday and Last 2 Weeks

Now
83 °F

Sunny.


Feels Like: 84 °F
Forecast: 81 / 60 °F
Wind: 17 mph from Southwest

Location: Napa County Airport
Current Time: Sep 24, 2020 at 2:48:00 pm
Latest Report: Sep 24, 2020 at 1:54 pm
Visibility: 10 mi
Pressure29.96 "Hg
Humidity: 51%
Dew Point: 63 °F
Location of VallejoLocation

Past Weather in Vallejo — Graph

°F

Vallejo Temperature Yesterday

Maximum temperature yesterday: 86 °F (at 2:54 pm)
Minimum temperature yesterday: 51 °F (at 2:54 am)
Average temperature yesterday: 68 °F

High & Low Weather Summary for the Past Weeks

 TemperatureHumidityPressure
High86 °F (Sep 12, 4:09 pm)100% (Sep 24, 7:33 am)30.09 "Hg (Sep 24, 7:33 am)
Low47 °F (Sep 12, 5:54 am)32% (Sep 20, 2:54 pm)29.80 "Hg (Sep 20, 4:54 pm)
Average64 °F77%29.95 "Hg
* Reported Sep 9 12:54 pm — Sep 24 12:54 pm, Vallejo. Weather by CustomWeather, © 2020

Note: Actual official high and low records may vary slightly from our data, if they occured in-between our weather recording intervals... More about our weather records

Vallejo Weather History for the Previous 24 Hours

Scroll right to see more
 ConditionsComfort  
Time TempWeatherWind HumidityBarometerVisibility
12:54 pm
Thu, Sep 24
80 °FSunny.16 mph56%29.98 "Hg10 mi
11:54 am79 °FSunny.13 mph58%29.99 "Hg10 mi
11:02 am77 °FSunny.13 mph60%30.03 "Hg10 mi
9:54 am72 °FSunny.9 mph68%30.02 "Hg10 mi
8:54 am67 °FSunny.7 mph81%30.01 "Hg10 mi
7:54 am60 °FPassing clouds.No wind96%30.01 "Hg10 mi
7:33 am55 °FFog.3 mph100%30.03 "Hg1 mi
7:15 am52 °FFog.No wind97%30.03 "Hg1 mi
6:37 am57 °FPassing clouds.No wind93%30.03 "Hg9 mi
5:54 am60 °FPassing clouds.3 mph90%30.00 "Hg10 mi
5:38 am59 °FPassing clouds.5 mph90%30.02 "Hg10 mi
5:19 am61 °FPassing clouds.3 mph93%30.03 "Hg10 mi
4:54 am63 °FPassing clouds.9 mph90%30.00 "Hg10 mi
4:37 am63 °FPassing clouds.10 mph93%30.03 "Hg10 mi
3:54 am62 °FClear.12 mph90%30.00 "Hg10 mi
2:54 am62 °FClear.7 mph90%30.00 "Hg10 mi
1:54 am63 °FClear.6 mph87%30.00 "Hg10 mi
12:54 am65 °FClear.12 mph81%30.00 "Hg10 mi
11:54 pm
Wed, Sep 23
65 °FClear.13 mph78%30.00 "Hg10 mi
10:54 pm65 °FClear.15 mph76%30.00 "Hg10 mi
9:54 pm66 °FClear.14 mph73%30.00 "Hg10 mi
8:54 pm66 °FClear.13 mph75%30.00 "Hg10 mi
7:54 pm67 °FClear.17 mph73%29.99 "Hg10 mi
6:54 pm72 °FSunny.20 mph61%29.98 "Hg10 mi
5:54 pm77 °FSunny.12 mph50%29.99 "Hg10 mi
4:54 pm80 °FSunny.22 mph47%29.99 "Hg8 mi
3:54 pm84 °FSunny.20 mph40%30.01 "Hg10 mi
3:11 pm86 °FSunny.17 mph36%30.04 "Hg10 mi
2:54 pm86 °FSunny.12 mph39%30.01 "Hg10 mi
Weather by CustomWeather, © 2020

See weather overview